Flag for Italy Weather past 2 weeks in Bologna, Italy

Now
45 °F

Passing clouds.


Feels Like: 41 °F
Forecast: 28 / 46 °F
Wind: 7 mph from Southeast

Location: Bologna / Borgo Panigale

Current Time: Jan 31, 2015 at 3:39:23 PM

Latest Report: Jan 31, 2015 at 2:50 PM


Visibility: N/A

Pressure: 29.12 "Hg

Humidity: 66%

Dew point: 34 °F

Location of BolognaLocation

Historic Weather in Bologna — Graph

°F

Bologna temperature yesterday

Maximum temperature yesterday: 45 °F (at 1:20 PM)
Minimum temperature yesterday: 34 °F (at 6:50 AM)
Average temperature yesterday: 38 °F

Past Weeks' High & Low Weather Summary

 TemperatureHumidityPressure
High64 °F (Jan 17, 1:20 PM)100% (Jan 20, 7:50 AM)30.27 "Hg (Jan 20, 7:50 AM)
Low27 °F (Jan 28, 7:20 AM)28% (Jan 17, 2:20 PM)28.82 "Hg (Jan 30, 11:50 AM)
Average42 °F77%29.81 "Hg
* Reported Jan 16 2:20 PM — Jan 31 2:20 PM, Bologna, Weather by CustomWeather, © 2014

Note: Actual official high and low records may vary slightly from our data, if they occured in-between our weather recording intervals... More about our weather records

Advertising

Bologna weather history for previous 24 hours

 ConditionsComfort  
Time TempWeatherWind HumidityBarometerVisibility
2:20 PM
Jan 31
45 °FPassing clouds.3 mph61%29.12 "HgN/A
1:50 PM45 °FPassing clouds.6 mph61%29.12 "HgN/A
1:20 PM45 °FPassing clouds.6 mph66%29.12 "HgN/A
12:50 PM43 °FPassing clouds.6 mph71%29.12 "HgN/A
12:20 PM43 °FPassing clouds.6 mph66%29.12 "HgN/A
11:50 AM43 °FPassing clouds.6 mph61%29.12 "HgN/A
11:20 AM41 °FSunny.6 mph66%29.12 "Hg10 mi
10:50 AM41 °FPassing clouds.3 mph57%29.12 "HgN/A
10:20 AM39 °FSunny.2 mph56%29.12 "Hg10 mi
9:50 AM37 °FSunny.1 mph60%29.12 "Hg10 mi
9:20 AM34 °FSunny.3 mph65%29.12 "Hg10 mi
8:50 AM30 °FSunny.3 mph75%29.12 "Hg10 mi
8:20 AM27 °FPassing clouds.5 mph80%29.09 "HgN/A
7:50 AM27 °FSunny.6 mph80%29.09 "Hg10 mi
7:20 AM28 °FClear.1 mph80%29.06 "Hg10 mi
6:50 AM28 °FClear.1 mph74%29.06 "Hg10 mi
6:20 AM28 °FPassing clouds.3 mph80%29.06 "HgN/A
5:50 AM27 °FClear.3 mph74%29.03 "Hg10 mi
5:20 AM27 °FClear.1 mph80%29.06 "Hg10 mi
4:50 AM30 °FClear.6 mph69%29.03 "Hg10 mi
3:50 AM30 °FClear.3 mph69%29.03 "Hg10 mi
3:20 AM30 °FClear.2 mph69%29.03 "Hg10 mi
2:50 AM36 °FClear.6 mph56%29.03 "Hg10 mi
2:20 AM37 °FClear.8 mph52%29.00 "Hg10 mi
1:50 AM39 °FClear.10 mph48%29.00 "Hg10 mi
1:20 AM37 °FClear.9 mph48%29.00 "Hg10 mi
12:50 AM37 °FClear.9 mph45%29.00 "Hg10 mi
12:20 AM36 °FClear.7 mph52%29.00 "Hg10 mi
11:50 PM
Jan 30
37 °FClear.7 mph48%29.00 "Hg10 mi
11:20 PM37 °FClear.6 mph45%29.00 "Hg10 mi
10:50 PM39 °FClear.7 mph42%28.97 "Hg10 mi
10:20 PM37 °FClear.8 mph45%28.97 "Hg10 mi
9:50 PM41 °FClear.7 mph36%28.97 "Hg10 mi
9:20 PM39 °FClear.9 mph42%28.97 "Hg10 mi
8:50 PM39 °FClear.9 mph42%28.94 "Hg10 mi
8:20 PM39 °FClear.5 mph45%28.94 "Hg10 mi
7:50 PM37 °FClear.6 mph52%28.94 "Hg10 mi
7:20 PM39 °FClear.6 mph48%28.94 "Hg10 mi
6:50 PM41 °FClear.6 mph49%28.91 "Hg10 mi
6:20 PM41 °FClear.6 mph53%28.91 "Hg10 mi
5:50 PM43 °FPassing clouds.1 mph53%28.91 "HgN/A
5:20 PM45 °FPassing clouds.3 mph49%28.91 "HgN/A
4:50 PM43 °FScattered clouds.5 mph57%28.88 "HgN/A
4:20 PM43 °FPartly sunny.6 mph61%28.88 "HgN/A
3:50 PM45 °FPartly sunny.8 mph53%28.88 "HgN/A
3:20 PM45 °FPartly sunny.10 mph53%28.85 "HgN/A
Weather by CustomWeather, © 2014

See weather overviewHow to use our weather pages